Location: McMath-Hulbert Observatory
(42.6964°N, 83.3187°W)
Time: 12:26:24
(UTC-04:00)

Daily predictions for brighter satellites

Satellite Brightness Start Highest point End
(mag) Time Altitude Azimuth Time Altitude Azimuth Time Altitude Azimuth
FENGYUN 3A 3.9 21:22:21 10° S 21:27:43 75° WSW 21:33:08 10° NNW
H-2A R/B 3.3 21:26:19 10° S 21:30:13 63° W 21:34:10 10° NNW
ISS -1.2 21:32:02 10° SE 21:32:35 10° SE 21:33:07 10° ESE
Cosmos 2285 Rocket 4.1 21:27:25 10° NNW 21:33:46 80° ENE 21:40:08 10° SSE
Cosmos 1461 3.4 21:33:47 10° NNW 21:38:00 47° NE 21:41:59 10° SE
Cosmos 494 Rocket 3.9 21:34:54 10° SSW 21:40:00 79° ESE 21:45:09 10° NNE
CZ-2C R/B 0.9 21:37:50 10° S 21:40:07 61° WSW 21:42:26 10° NNW
Cosmos 2058 Rocket 3.1 21:36:10 10° N 21:40:34 89° NE 21:44:55 10° S
SPOT 5 3.3 21:36:58 10° SE 21:41:02 37° ENE 21:45:03 10° N
CZ-4 DEB 4.4 21:38:05 10° SSW 21:41:05 34° W 21:44:05 10° NNW
Cosmos 1464 Rocket 4.0 21:38:30 10° N 21:44:40 79° E 21:50:49 10° S
Cosmos 1602 Rocket 4.0 21:42:45 10° SSE 21:46:58 43° E 21:51:12 10° NNE
CZ-4 SHROUD 3.8 21:46:47 10° SE 21:49:48 42° ENE 21:52:48 10° N
Cosmos 2237 Rocket 4.1 21:46:41 10° WSW 21:51:47 35° WNW 21:56:56 10° N
H-2A R/B 4.1 21:50:04 10° E 21:51:57 12° ENE 21:53:52 10° NE
Lacrosse 5 4.3 21:47:53 10° W 21:52:04 25° NNW 21:56:16 10° NNE
ALOS 3.7 21:48:44 10° SSW 21:53:03 37° W 21:57:24 10° NNW
deb Chang Zheng 4 3.6 21:49:13 10° NNE 21:53:39 88° W 21:58:01 10° SSW
Aureole 2 Rocket 2.5 21:50:02 10° SSW 21:53:59 77° ESE 21:57:35 10° NNE
Cosmos 1812 Rocket 4.2 21:52:35 10° N 21:56:43 40° ENE 22:00:27 12° SE
Cosmos 2278 Rocket 4.2 21:53:55 10° NW 21:58:27 25° WSW 22:02:58 10° SSW
SPOT 1/Viking Rocket 4.4 21:55:43 11° SE 22:00:04 35° ENE 22:04:43 10° N
Cosmos 2034 Rocket 4.1 21:56:50 10° N 22:03:15 82° E 22:09:35 10° S
Terra 3.9 22:01:35 10° E 22:03:49 13° ENE 22:06:05 10° NNE
ATLAS CENTAUR R/B 4.1 22:04:19 10° WSW 22:08:42 29° NW 22:13:06 10° NNE
Atlas Centaur 2 3.8 22:02:49 10° SW 22:09:10 29° SSE 22:15:35 12° ESE
H-2A R/B 2.9 22:06:41 10° S 22:10:47 49° W 22:15:02 10° NNW
SeaSat 1 2.5 22:07:21 13° SSE 22:11:47 85° ENE 22:16:45 10° NNW
Cosmos 2369 Rocket 3.2 22:07:13 10° N 22:12:19 33° NE 22:16:29 14° ESE
Cosmos 1302 Rocket 4.4 22:08:45 10° NNW 22:13:56 64° WSW 22:19:07 10° S
DEBRIS 3.0 22:08:50 10° WNW 22:14:03 49° SW 22:15:33 20° SSE
ARGOS 3.9 22:10:34 15° SE 22:14:40 39° ENE 22:19:41 10° N
Cosmos 1666 3.5 22:12:10 10° NNW 22:15:59 53° W 22:19:46 10° S
CZ-4B R/B 3.7 22:12:39 10° NNE 22:17:36 51° E 22:22:38 10° S
PSLV R/B 3.3 22:16:10 14° S 22:18:41 75° WSW 22:21:48 10° NNW
SL-16 R/B 3.5 22:14:06 10° SW 22:19:29 45° WNW 22:24:55 10° NNE
Cosmos 1626 Rocket 3.6 22:15:34 10° S 22:20:00 84° W 22:24:28 10° N
Cosmos 1939 Rocket 3.7 22:18:11 10° S 22:22:13 50° W 22:26:16 10° NNW
Milstar 3 Cent rocket 4.3 22:22:41 10° SW 22:25:02 12° SSW 22:27:06 10° S
COSMOS 2455 2.9 22:21:15 10° SSW 22:27:08 59° ESE 22:33:03 10° NE
Meteor 2-12 Rocket 4.4 22:21:34 10° N 22:27:40 71° E 22:32:34 16° SSE
Cosmos 2228 4.3 22:25:52 10° NNW 22:29:59 39° W 22:34:05 10° SSW
MetOp-B 4.1 22:28:00 15° SSE 22:32:32 87° WSW 22:37:56 10° NNW
Lacrosse 5 rocket 3.9 22:30:25 10° W 22:33:37 23° NNW 22:36:58 10° NNE
ATLAS 3B R/B 3.3 22:30:22 10° S 22:37:24 41° ESE 22:44:21 10° NE
Cosmos 1953 Rocket 4.3 22:35:33 24° SE 22:37:28 35° E 22:41:30 10° NNE
Cosmos 1515 3.6 22:43:53 19° S 22:46:34 87° E 22:50:27 10° N
Envisat 4.0 22:42:54 10° SSW 22:47:40 41° W 22:52:30 10° NNW
Cosmos 1066 Rocket 4.3 22:43:48 18° S 22:47:59 62° E 22:53:44 10° NNE
Cosmos 1603 4.1 22:42:44 10° SW 22:48:18 65° WNW 22:53:54 10° NNE
USA 234 3.3 22:45:49 22° SE 22:50:19 77° SW 22:56:56 10° NW
Abrixas rocket 4.2 22:48:13 10° W 22:50:42 19° SW 22:51:25 18° SSW
Cosmos 407 Rocket 4.0 22:49:25 25° SSE 22:51:50 40° ESE 22:56:41 10° NE
Cosmos-2242 4.3 22:53:28 10° NNE 22:57:11 26° ENE 22:58:21 23° E
Cosmos 1346 Rocket 2.9 22:56:00 36° SSE 22:57:12 52° E 23:01:02 10° NNE
DELTA 2 DEB (DPAF) 4.2 22:56:14 31° SSE 22:58:19 70° ENE 23:02:48 10° N
Lacrosse 4 Rocket 1.9 22:59:11 35° ESE 22:59:29 36° ESE 23:03:15 10° NE
YAOGAN 6 3.5 23:02:20 23° SSW 23:04:17 44° W 23:07:53 10° NNW
USA 81 4.1 22:59:29 10° N 23:04:48 79° W 23:08:02 24° S
ISS -3.5 23:05:15 10° SW 23:08:31 85° SSE 23:11:48 10° ENE
BREEZE-M DEB (TANK) 2.6 23:05:52 10° WSW 23:08:50 50° NNW 23:09:51 24° NE
PSLV R/B 3.3 23:05:42 10° WSW 23:09:12 58° S 23:09:23 57° SSE
CZ-4 R/B 4.1 23:06:25 10° N 23:11:23 73° WNW 23:15:27 16° SSW
Cosmos 1758 Rocket 3.5 23:10:06 38° SSE 23:11:42 68° E 23:16:03 10° NNE
Cosmos 1943 3.1 23:07:21 11° SSW 23:12:46 85° ESE 23:18:30 10° NNE
Cosmos 1842 3.9 23:13:33 37° E 23:13:46 37° E 23:17:24 10° NNE
Meteor 1-21 4.3 23:11:19 30° SSE 23:14:05 60° E 23:19:50 10° NNE
CARTOSAT-1 3.6 23:14:29 42° SE 23:15:47 63° ENE 23:20:04 10° N
Cosmos 1758 4.3 23:14:47 10° NNE 23:18:30 32° ENE 23:19:02 31° E
Cosmos 1943 Rocket 2.8 23:15:55 10° NNW 23:21:13 44° ENE 23:23:31 29° ESE
Spot 4 4.0 23:22:16 40° SE 23:23:45 59° ENE 23:28:28 10° N
Spot 2 4.4 23:19:09 10° NNE 23:23:53 61° ESE 23:25:25 41° SSE
Landsat 7 3.8 23:23:17 37° S 23:25:08 77° WSW 23:29:55 10° NNW
SL-08 RB Rocket 4.4 23:27:19 29° SSW 23:29:17 49° W 23:33:42 10° NNW
H-2A R/B 1.9 23:28:49 42° SSE 23:30:34 90° ENE 23:35:39 10° NNW
SAR-Lupe-2 3.5 23:30:47 65° SSW 23:31:11 75° WSW 23:34:47 10° NNW
Cosmos 1766 3.3 23:29:38 10° N 23:33:39 81° W 23:34:21 59° S
Geosat 4.4 23:35:06 10° NNE 23:40:05 64° WNW 23:44:24 14° SW
Terra 1.8 23:39:33 46° S 23:40:55 76° WSW 23:45:42 10° NNW
Cosmos 1842 Rocket 4.3 23:37:03 10° N 23:41:09 38° ENE 23:41:34 37° E
Nadezhda 4 Rocket 4.1 23:45:01 40° SSE 23:47:05 59° E 23:53:18 10° NNE
DMSP B5D2-2 4.1 23:46:03 10° NNE 23:51:21 81° WNW 23:53:28 38° SSW
CZ-4C R/B 4.2 23:54:52 12° E 23:54:52 12° E 23:55:59 10° ENE
